EW4725 Weather Reports


time (UTC)temp
C
wind
direction
speed
KPH
gust
KPH
rain 1hr
cm
rain 24hr
cm
rain mn
cm
humidity
%
barometer
mb
20260506015136 18 283 3.2 4.8 0.00 1.04 0.25 55 1014.3
20260506014616 18 260 3.2 6.4 0.00 1.04 0.25 53 1014.2
20260506014116 18 260 4.8 6.4 0.00 1.04 0.25 53 1014.1
20260506013616 18 283 4.8 8.0 0.00 1.04 0.25 54 1014.1
20260506013116 18 305 6.4 9.7 0.00 1.04 0.25 53 1014.1
20260506012616 18 260 4.8 8.0 0.00 1.04 0.25 54 1014.1
20260506012136 18 260 8.0 11.3 0.00 1.04 0.25 57 1014.1
20260506011616 18 283 8.0 11.3 0.00 1.04 0.25 57 1014.1
20260506011116 18 283 6.4 9.7 0.00 1.04 0.25 58 1014.1
20260506010616 18 260 11.3 19.3 0.00 1.04 0.25 56 1014.0
20260506010116 18 260 9.7 17.7 0.00 1.04 0.25 57 1014.0
20260506005616 18 260 8.0 12.9 0.00 1.04 0.25 57 1014.0
20260506005116 18 260 11.3 16.1 0.00 1.04 0.25 57 1014.0
20260506004616 18 238 12.9 19.3 0.00 1.04 0.25 57 1014.0
20260506004116 18 283 9.7 14.5 0.00 1.04 0.25 59 1014.0
20260506003616 18 260 4.8 6.4 0.00 1.04 0.25 59 1014.0
20260506003136 18 260 9.7 16.1 0.00 1.04 0.25 58 1014.0
20260506002656 18 260 9.7 14.5 0.00 1.04 0.25 58 1013.9
20260506002115 18 283 8.0 12.9 0.00 1.04 0.25 58 1013.9
20260506001616 18 260 11.3 14.5 0.00 1.04 0.25 58 1014.0
20260506001115 18 283 11.3 19.3 0.00 1.04 0.25 59 1014.0
20260506000656 18 283 9.7 14.5 0.00 1.04 0.25 58 1014.0
20260506000115 18 260 9.7 12.9 0.00 1.04 0.25 56 1014.0
20260505235616 18 260 8.0 11.3 0.00 1.04 0.25 58 1014.0
20260505235116 18 260 9.7 16.1 0.00 1.04 0.25 57 1014.1
20260505234616 18 305 6.4 9.7 0.00 1.04 0.25 57 1014.0
20260505234115 18 305 6.4 9.7 0.00 1.04 0.25 57 1014.1
20260505233636 18 283 11.3 16.1 0.00 1.04 0.25 56 1014.1
20260505233115 18 283 9.7 14.5 0.00 1.04 0.25 55 1014.1
20260505232616 18 305 4.8 11.3 0.00 1.04 0.25 56 1014.1
20260505232115 18 283 9.7 14.5 0.00 1.04 0.25 53 1014.1
20260505231616 18 283 11.3 16.1 0.00 1.04 0.25 52 1014.0
20260505231115 18 283 14.5 20.9 0.00 1.04 0.25 52 1014.0
20260505230616 18 260 8.0 12.9 0.00 1.04 0.25 51 1014.0
20260505230116 18 305 11.3 16.1 0.00 1.04 0.25 49 1014.0
20260505225615 18 305 9.7 16.1 0.00 1.04 0.25 48 1014.1
20260505225116 19 305 12.9 20.9 0.00 1.04 0.25 47 1014.1
20260505224635 19 305 9.7 16.1 0.00 1.04 0.25 50 1014.0
20260505224115 18 260 14.5 19.3 0.00 1.04 0.25 48 1014.1
20260505223615 19 283 11.3 19.3 0.00 1.04 0.25 49 1014.2
20260505223116 19 283 8.0 12.9 0.00 1.04 0.25 49 1014.2
20260505222616 18 283 12.9 19.3 0.00 1.04 0.25 49 1014.2
20260505222136 19 283 11.3 16.1 0.00 1.04 0.25 49 1014.2
20260505221656 20 283 9.7 14.5 0.00 1.04 0.25 49 1014.3
20260505221115 20 305 12.9 17.7 0.00 1.04 0.25 46 1014.4
20260505220635 20 260 9.7 14.5 0.00 1.04 0.25 49 1014.3
20260505220135 20 283 11.3 24.1 0.00 1.04 0.25 48 1014.3
20260505215616 20 283 11.3 19.3 0.00 1.04 0.25 48 1014.4
20260505215115 20 305 8.0 11.3 0.00 1.04 0.25 49 1014.4
20260505214615 20 305 11.3 19.3 0.00 1.04 0.25 49 1014.5
20260505214116 20 283 14.5 20.9 0.00 1.04 0.25 48 1014.5
20260505213615 20 283 11.3 16.1 0.00 1.04 0.25 46 1014.5
20260505213116 20 283 12.9 17.7 0.00 1.04 0.25 48 1014.6
20260505212636 20 238 8.0 9.7 0.00 1.04 0.25 48 1014.6
20260505212115 20 260 14.5 19.3 0.00 1.04 0.25 49 1014.6
20260505211615 20 283 14.5 20.9 0.00 1.04 0.25 50 1014.6
20260505211136 19 305 6.4 9.7 0.00 1.04 0.25 50 1014.6
20260505210615 19 283 12.9 17.7 0.00 1.04 0.25 51 1014.6
20260505210115 19 260 6.4 9.7 0.00 1.04 0.25 50 1014.6
20260505205616 19 260 8.0 12.9 0.00 1.04 0.25 49 1014.6
20260505205115 19 260 4.8 9.7 0.00 1.04 0.25 50 1014.6
20260505204615 19 283 8.0 14.5 0.00 1.04 0.25 51 1014.6
20260505204136 20 260 6.4 9.7 0.00 1.04 0.25 52 1014.6
20260505203636 19 260 6.4 11.3 0.00 1.04 0.25 51 1014.5
20260505203115 20 283 8.0 14.5 0.00 1.04 0.25 50 1014.5
20260505202615 20 260 11.3 17.7 0.00 1.04 0.25 51 1014.5
20260505202115 19 238 8.0 12.9 0.00 1.04 0.25 53 1014.6
20260505201655 19 283 9.7 14.5 0.00 1.04 0.25 52 1014.5
20260505201115 19 260 8.0 17.7 0.00 1.04 0.25 54 1014.6
20260505200615 19 283 9.7 14.5 0.00 1.04 0.25 52 1014.6
20260505200155 19 305 9.7 14.5 0.00 1.04 0.25 52 1014.7
20260505195615 19 260 9.7 16.1 0.00 1.04 0.25 53 1014.7
20260505195116 19 283 9.7 14.5 0.00 1.04 0.25 52 1014.7
20260505194615 19 260 12.9 19.3 0.00 1.04 0.25 51 1014.7
20260505194115 19 283 11.3 17.7 0.00 1.04 0.25 52 1014.8
20260505193615 19 283 12.9 19.3 0.00 1.04 0.25 52 1014.9
20260505193116 18 305 9.7 14.5 0.00 1.04 0.25 55 1014.9
20260505192615 18 283 9.7 14.5 0.00 1.04 0.25 55 1014.9
20260505192115 18 283 8.0 11.3 0.00 1.04 0.25 53 1015.0
20260505191615 18 260 4.8 6.4 0.00 1.04 0.25 54 1015.1
20260505191115 18 283 9.7 14.5 0.00 1.04 0.25 52 1015.1
20260505190615 18 260 9.7 12.9 0.00 1.04 0.25 52 1015.1
20260505190115 18 260 11.3 12.9 0.00 1.04 0.25 52 1015.1
20260505185617 18 283 11.3 16.1 0.00 1.04 0.25 53 1015.1
20260505185117 18 260 11.3 16.1 0.00 1.04 0.25 55 1015.1
20260505184615 18 260 11.3 16.1 0.00 1.04 0.25 55 1015.1
20260505184117 18 260 6.4 11.3 0.00 1.04 0.25 55 1015.1
20260505183617 18 260 9.7 16.1 0.00 1.04 0.25 57 1015.2
20260505183117 18 238 9.7 14.5 0.00 1.04 0.25 57 1015.2
20260505182635 18 260 12.9 17.7 0.00 1.04 0.25 59 1015.2
20260505182137 18 260 8.0 12.9 0.00 1.04 0.25 61 1015.1
20260505181617 18 283 8.0 11.3 0.00 1.04 0.25 59 1015.1
20260505181117 17 283 8.0 11.3 0.00 1.04 0.25 60 1015.0
20260505180617 17 238 12.9 16.1 0.00 1.04 0.25 56 1015.0
20260505180117 17 283 11.3 16.1 0.00 1.04 0.25 61 1015.0
20260505175616 17 283 11.3 16.1 0.00 1.04 0.25 64 1014.9
20260505175117 17 260 8.0 11.3 0.00 1.04 0.25 64 1015.0
20260505174617 17 283 9.7 17.7 0.00 1.04 0.25 65 1014.9
20260505174238 17 260 12.9 22.5 0.00 1.04 0.25 64 1014.9
20260505173617 17 283 11.3 17.7 0.00 1.04 0.25 63 1014.8
20260505173117 18 283 12.9 17.7 0.00 1.04 0.25 63 1014.7
20260505172617 18 283 8.0 12.9 0.00 1.04 0.25 62 1014.7
20260505172117 17 260 8.0 11.3 0.00 1.04 0.25 63 1014.7
20260505171637 17 260 8.0 11.3 0.00 1.04 0.25 64 1014.6
20260505171117 17 260 6.4 20.9 0.00 1.04 0.25 65 1014.6
20260505170617 17 260 6.4 11.3 0.00 1.04 0.25 67 1014.6
20260505170117 17 260 4.8 8.0 0.00 1.04 0.25 71 1014.6
20260505165617 17 260 9.7 16.1 0.00 1.04 0.25 69 1014.5
20260505165135 17 260 9.7 14.5 0.00 1.04 0.25 70 1014.5
20260505164657 17 283 8.0 12.9 0.00 1.04 0.25 69 1014.4
20260505164117 17 283 6.4 11.3 0.00 1.04 0.25 70 1014.4
20260505163617 17 260 9.7 14.5 0.00 1.04 0.25 70 1014.4
20260505163117 17 260 8.0 12.9 0.00 1.04 0.25 71 1014.3
20260505162617 17 260 4.8 6.4 0.00 1.04 0.25 72 1014.2
20260505162117 16 260 6.4 11.3 0.00 1.04 0.25 72 1014.2
20260505161617 16 260 4.8 8.0 0.00 1.04 0.25 73 1014.2
20260505161117 16 260 6.4 11.3 0.00 1.04 0.25 76 1014.1
20260505160617 16 238 9.7 17.7 0.00 1.04 0.25 76 1014.1
20260505160117 16 215 4.8 8.0 0.00 1.04 0.25 81 1014.0
20260505153117 14 260 4.8 9.7 0.00 1.04 0.25 98 1014.1
20260505152617 13 305 4.8 8.0 0.00 1.04 0.25 98 1014.0
20260505152137 13 260 6.4 11.3 0.00 1.04 0.25 98 1014.0
20260505151617 13 283 4.8 9.7 0.00 1.04 0.25 98 1014.0
20260505151117 13 260 4.8 6.4 0.00 1.04 0.25 98 1014.0
20260505150617 13 260 4.8 8.0 0.00 1.04 0.25 98 1014.0
20260505150117 13 283 4.8 6.4 0.00 1.04 0.25 98 1014.0
20260505140617 12 0.0 3.2 0.00 1.04 0.25 98 1013.6
20260505140136 12 283 1.6 4.8 0.00 1.04 0.25 98 1013.7
20260505130116 12 0.0 0.0 0.00 1.04 0.25 98 1013.6
20260505124616 12 283 1.6 1.6 0.00 1.04 0.25 98 1013.5
20260505124116 12 283 1.6 1.6 0.00 1.04 0.25 98 1013.5
20260505123617 12 0.0 0.0 0.00 1.04 0.25 98 1013.5
20260505123117 12 0.0 0.0 0.00 1.04 0.25 98 1013.5
20260505122617 12 0.0 0.0 0.00 1.04 0.25 98 1013.4
20260505122116 12 0.0 0.0 0.00 1.04 0.25 98 1013.4
20260505121616 12 0.0 0.0 0.00 1.04 0.25 98 1013.3
20260505121116 12 0.0 0.0 0.00 1.04 0.25 98 1013.3
20260505120616 12 0.0 0.0 0.00 1.04 0.25 98 1013.3
20260505120116 11 0.0 0.0 0.00 1.04 0.25 98 1013.4
20260505115616 12 0.0 0.0 0.00 1.04 0.25 98 1013.4
20260505115116 12 0.0 0.0 0.00 1.04 0.25 98 1013.4
20260505114616 12 0.0 0.0 0.00 1.04 0.25 98 1013.4
20260505114116 12 0.0 0.0 0.00 1.04 0.25 98 1013.4
20260505113617 12 0.0 0.0 0.05 1.04 0.25 98 1013.4
20260505113116 12 0.0 0.0 0.05 1.04 0.25 98 1013.4
20260505112616 12 0.0 0.0 0.05 1.04 0.25 98 1013.4
20260505112116 12 0.0 1.6 0.05 1.04 0.25 98 1013.5
20260505111617 12 58 1.6 4.8 0.05 1.04 0.25 98 1013.5
20260505111136 12 0.0 1.6 0.05 1.04 0.25 98 1013.5
20260505110617 12 35 1.6 1.6 0.05 1.04 0.25 98 1013.6
20260505110116 12 0.0 0.0 0.05 1.04 0.25 98 1013.5
20260505102137 12 0.0 0.0 0.05 0.99 0.20 98 1013.5
20260505101616 12 0.0 0.0 0.05 0.99 0.20 98 1013.5
20260505101116 12 0.0 0.0 0.05 0.99 0.20 98 1013.5
20260505100616 12 0.0 1.6 0.05 0.99 0.20 98 1013.4
20260505100116 12 0.0 0.0 0.05 0.99 0.20 98 1013.5
20260505095616 13 0.0 0.0 0.05 0.99 0.20 98 1013.5
20260505095136 13 0.0 0.0 0.05 0.99 0.20 98 1013.5
20260505094616 13 0.0 0.0 0.05 0.99 0.20 98 1013.6
20260505094116 13 0.0 0.0 0.03 0.97 0.18 98 1013.7
20260505093616 12 0.0 1.6 0.00 0.94 0.15 98 1013.8
20260505093116 12 148 1.6 3.2 0.00 0.94 0.15 98 1013.8
20260505092616 12 0.0 1.6 0.00 0.94 0.15 98 1013.8
20260505092116 13 148 3.2 4.8 0.00 0.94 0.15 98 1014.0
20260505091616 12 0.0 0.0 0.00 0.94 0.15 98 1014.0
20260505091116 12 170 3.2 4.8 0.00 0.94 0.15 98 1014.1
20260505090616 12 170 1.6 3.2 0.00 0.94 0.15 98 1014.1
20260505090116 12 148 1.6 3.2 0.00 0.94 0.15 98 1014.2
20260505085616 12 148 1.6 1.6 0.00 0.94 0.15 98 1014.1
20260505085116 12 148 3.2 3.2 0.00 0.94 0.15 97 1014.2
20260505084616 12 125 3.2 3.2 0.00 0.94 0.15 97 1014.2
20260505084116 12 148 1.6 3.2 0.03 0.94 0.15 97 1014.2
20260505083616 12 125 1.6 1.6 0.05 0.94 0.15 97 1014.2
20260505083116 12 125 1.6 3.2 0.10 0.94 0.15 97 1014.3
20260505082616 12 125 1.6 3.2 0.10 0.94 0.15 97 1014.3
20260505082136 12 148 4.8 8.0 0.10 0.94 0.15 97 1014.4
20260505081616 12 125 4.8 6.4 0.13 0.94 0.15 97 1014.5
20260505081116 12 125 3.2 4.8 0.13 0.94 0.15 97 1014.5
20260505080616 12 125 3.2 4.8 0.13 0.94 0.15 97 1014.5
20260505080116 13 148 1.6 4.8 0.13 0.94 0.15 97 1014.6
20260505075636 13 148 1.6 1.6 0.15 0.94 0.15 97 1014.5
20260505075116 13 125 3.2 4.8 0.20 0.94 0.15 97 1014.5
20260505074616 12 125 6.4 8.0 0.28 0.94 0.15 97 1014.6
20260505074156 12 125 3.2 6.4 0.28 0.91 0.13 97 1014.7
20260505073630 12 148 4.8 6.4 0.25 0.89 0.10 97 1014.9
20260505073610 12 125 3.2 4.8 0.28 0.84 0.05 97 1014.8
20260505072856 12 148 3.2 8.0 0.28 0.84 0.05 97 1014.8
20260505072336 12 103 3.2 4.8 0.33 0.84 0.05 97 1014.8
20260505071816 12 125 3.2 3.2 0.38 0.84 0.05 97 1014.8
20260505071336 13 125 1.6 3.2 0.38 0.81 0.03 97 1014.8
20260505070836 13 125 4.8 6.4 0.41 0.81 0.03 97 1014.8
20260505070316 12 0.0 1.6 0.51 0.81 0.03 97 1014.8
20260505065836 12 0.0 1.6 0.56 0.79 0.79 97 1014.8
20260505065316 12 0.0 1.6 0.56 0.76 0.76 97 1014.8
20260505064816 12 0.0 1.6 0.53 0.71 0.71 97 1014.8
20260505064317 13 103 1.6 3.2 0.51 0.66 0.66 97 1014.9
20260505063816 13 0.0 1.6 0.51 0.64 0.64 97 1014.8
20260505063316 13 148 3.2 4.8 0.46 0.58 0.58 97 1014.8
20260505062817 13 148 3.2 3.2 0.43 0.56 0.56 97 1014.8
20260505062316 13 148 3.2 4.8 0.41 0.51 0.51 97 1014.8
20260505061816 13 125 3.2 3.2 0.38 0.46 0.46 97 1014.7
20260505061316 13 125 3.2 3.2 0.36 0.43 0.43 97 1014.8
20260505060816 13 125 3.2 3.2 0.33 0.41 0.41 97 1014.8
20260505060316 13 0.0 1.6 0.23 0.30 0.30 97 1014.9
20260505055816 13 125 3.2 3.2 0.15 0.23 0.23 97 1014.9
20260505055437 13 148 1.6 3.2 0.13 0.20 0.20 97 1014.8
20260505054816 13 148 1.6 1.6 0.10 0.18 0.18 97 1014.9
20260505054316 13 0.0 1.6 0.08 0.15 0.15 97 1014.8
20260505053816 13 148 3.2 4.8 0.05 0.13 0.13 97 1014.9
20260505053316 13 125 3.2 4.8 0.05 0.13 0.13 97 1014.9
20260505052816 13 148 1.6 3.2 0.05 0.13 0.13 97 1014.9
20260505052316 13 170 1.6 3.2 0.03 0.10 0.10 97 1014.9
20260505051816 13 170 3.2 4.8 0.00 0.08 0.08 97 1014.9
20260505051316 13 125 1.6 3.2 0.00 0.08 0.08 97 1015.0
20260505050816 13 170 3.2 4.8 0.00 0.08 0.08 97 1015.0
20260505050316 13 0.0 0.0 0.00 0.08 0.08 97 1015.1
20260505041316 13 0.0 0.0 0.00 0.08 0.08 97 1015.2
20260505040816 13 0.0 0.0 0.00 0.08 0.08 97 1015.2
20260505040316 13 0.0 1.6 0.00 0.08 0.08 96 1015.1
20260505035816 13 238 1.6 1.6 0.00 0.08 0.08 96 1015.1
20260505035316 13 0.0 1.6 0.00 0.08 0.08 96 1015.0
20260505034816 13 0.0 1.6 0.00 0.08 0.08 96 1015.0
20260505034316 13 238 4.8 6.4 0.00 0.08 0.08 96 1014.9
20260505033816 13 0.0 1.6 0.00 0.08 0.08 96 1014.9
20260505033316 13 215 3.2 6.4 0.00 0.08 0.08 96 1014.9
20260505032816 13 193 3.2 4.8 0.00 0.08 0.08 96 1014.8
20260505032316 13 238 3.2 4.8 0.03 0.08 0.08 96 1014.7
20260505031836 13 238 3.2 6.4 0.05 0.08 0.08 96 1014.7
20260505031316 13 238 3.2 6.4 0.08 0.08 0.08 96 1014.7
20260505030816 13 215 4.8 8.0 0.08 0.08 0.08 95 1014.6
20260505030316 13 148 3.2 11.3 0.08 0.08 0.08 95 1014.7
20260505025816 13 238 4.8 9.7 0.08 0.08 0.08 95 1014.7
20260505025316 13 170 4.8 9.7 0.08 0.08 0.08 95 1014.7
20260505024816 13 238 1.6 4.8 0.08 0.08 0.08 95 1014.6
20260505024316 13 170 4.8 9.7 0.08 0.08 0.08 95 1014.6
20260505023816 13 170 1.6 3.2 0.08 0.08 0.08 94 1014.7
20260505023316 14 148 6.4 9.7 0.08 0.08 0.08 94 1014.7
20260505022816 14 170 4.8 8.0 0.08 0.08 0.08 92 1014.8
20260505022316 15 170 6.4 11.3 0.05 0.05 0.05 89 1014.8
20260505021816 16 148 6.4 11.3 0.03 0.03 0.03 81 1014.7
20260505021316 16 215 6.4 12.9 0.00 0.00 0.00 76 1014.6
20260505020816 16 238 6.4 12.9 0.00 0.00 0.00 73 1014.6
20260505020316 17 170 3.2 3.2 0.00 0.00 0.00 73 1014.5
20260505015816 17 283 1.6 1.6 0.00 0.00 0.00 71 1014.5